| time (UTC) | temp F | wind direction | speed knots | gust knots | rain 1hr in | rain 24hr in | rain mn in | humidity % | barometer mb |
| 20260506171301 | 56 | 150 | 2.6 | 7.0 | 0.00 | 0.00 | 0.00 | 88 | 1017.7 |
| 20260506170805 | 56 | 165 | 2.6 | 7.0 | 0.00 | 0.00 | 0.00 | 86 | 1017.7 |
| 20260506170801 | 56 | 138 | 3.5 | 7.0 | 0.00 | 0.00 | 0.00 | 87 | 1017.7 |
| 20260506165801 | 57 | 128 | 1.7 | 5.2 | 0.00 | 0.00 | 0.00 | 85 | 1017.7 |
| 20260506165305 | 57 | 118 | 0.9 | 4.3 | 0.00 | 0.00 | 0.00 | 86 | 1017.5 |
| 20260506164801 | 57 | 167 | 1.7 | 6.1 | 0.00 | 0.00 | 0.00 | 86 | 1017.5 |
| 20260506164301 | 57 | 175 | 1.7 | 6.1 | 0.00 | 0.00 | 0.00 | 87 | 1017.4 |
| 20260506163803 | 56 | 140 | 1.7 | 6.1 | 0.00 | 0.00 | 0.00 | 85 | 1017.5 |
| 20260506163759 | 56 | 134 | 2.6 | 6.1 | 0.00 | 0.00 | 0.00 | 87 | 1017.5 |
| 20260506163259 | 56 | 158 | 2.6 | 6.1 | 0.00 | 0.00 | 0.00 | 87 | 1017.4 |
| 20260506162259 | 56 | 185 | 1.7 | 5.2 | 0.00 | 0.00 | 0.00 | 84 | 1017.5 |
| 20260506161759 | 56 | 122 | 1.7 | 6.1 | 0.00 | 0.00 | 0.00 | 84 | 1017.5 |
| 20260506161259 | 57 | 120 | 2.6 | 6.1 | 0.00 | 0.00 | 0.00 | 82 | 1017.5 |
| 20260506160759 | 57 | 77 | 2.6 | 6.1 | 0.00 | 0.00 | 0.00 | 81 | 1017.4 |
| 20260506160257 | 57 | 142 | 2.6 | 6.1 | 0.00 | 0.00 | 0.00 | 81 | 1017.4 |
| 20260506155757 | 57 | 74 | 1.7 | 6.1 | 0.00 | 0.00 | 0.00 | 80 | 1017.4 |
| 20260506155257 | 57 | 142 | 1.7 | 6.1 | 0.00 | 0.00 | 0.00 | 80 | 1017.4 |
| 20260506154801 | 57 | 141 | 2.6 | 7.0 | 0.00 | 0.00 | 0.00 | 80 | 1017.4 |
| 20260506154757 | 57 | 130 | 1.7 | 6.1 | 0.00 | 0.00 | 0.00 | 80 | 1017.4 |
| 20260506154404 | 57 | 73 | 2.6 | 7.0 | 0.00 | 0.00 | 0.00 | 80 | 1017.4 |
| 20260506153301 | 56 | 96 | 0.9 | 5.2 | 0.00 | 0.00 | 0.00 | 80 | 1017.4 |
| 20260506153257 | 56 | 73 | 1.7 | 6.1 | 0.00 | 0.00 | 0.00 | 81 | 1017.4 |
| 20260506152904 | 56 | 133 | 0.9 | 4.3 | 0.00 | 0.00 | 0.00 | 80 | 1017.3 |
| 20260506151757 | 56 | 124 | 1.7 | 5.2 | 0.00 | 0.00 | 0.00 | 79 | 1017.3 |
| 20260506151255 | 56 | 122 | 2.6 | 5.2 | 0.00 | 0.00 | 0.00 | 79 | 1017.3 |
| 20260506150755 | 56 | 132 | 1.7 | 5.2 | 0.00 | 0.00 | 0.00 | 78 | 1017.3 |
| 20260506150304 | 57 | 126 | 0.0 | 5.2 | 0.00 | 0.00 | 0.00 | 75 | 1017.3 |
| 20260506145755 | 56 | 128 | 0.0 | 2.6 | 0.00 | 0.00 | 0.00 | 75 | 1017.3 |
| 20260506145256 | 56 | 124 | 0.0 | 2.6 | 0.00 | 0.00 | 0.00 | 73 | 1017.3 |
| 20260506144759 | 56 | 163 | 0.9 | 3.5 | 0.00 | 0.00 | 0.00 | 74 | 1017.3 |
| 20260506144755 | 56 | 164 | 0.0 | 2.6 | 0.00 | 0.00 | 0.00 | 73 | 1017.4 |
| 20260506143754 | 56 | 135 | 0.0 | 3.5 | 0.00 | 0.00 | 0.00 | 74 | 1017.3 |
| 20260506143255 | 56 | 162 | 0.0 | 1.7 | 0.00 | 0.00 | 0.00 | 72 | 1017.3 |
| 20260506142755 | 55 | 162 | 0.0 | 0.0 | 0.00 | 0.00 | 0.00 | 74 | 1017.4 |
| 20260506142255 | 55 | 162 | 0.0 | 0.0 | 0.00 | 0.00 | 0.00 | 74 | 1017.3 |
| 20260506141755 | 54 | 162 | 0.0 | 0.0 | 0.00 | 0.00 | 0.00 | 75 | 1017.2 |
| 20260506141254 | 54 | 162 | 0.0 | 0.0 | 0.00 | 0.00 | 0.00 | 76 | 1017.2 |
| 20260506140755 | 53 | 162 | 0.0 | 0.9 | 0.00 | 0.00 | 0.00 | 77 | 1017.2 |
| 20260506140254 | 53 | 162 | 0.0 | 0.9 | 0.00 | 0.00 | 0.00 | 77 | 1017.1 |
| 20260506135755 | 53 | 162 | 0.0 | 0.0 | 0.00 | 0.00 | 0.00 | 78 | 1017.1 |
| 20260506135255 | 53 | 162 | 0.0 | 0.0 | 0.00 | 0.00 | 0.00 | 78 | 1017.1 |
| 20260506134759 | 53 | 162 | 0.0 | 0.0 | 0.00 | 0.00 | 0.00 | 76 | 1017.0 |
| 20260506134755 | 53 | 162 | 0.0 | 0.0 | 0.00 | 0.00 | 0.00 | 77 | 1017.0 |
| 20260506133753 | 53 | 162 | 0.0 | 0.0 | 0.00 | 0.00 | 0.00 | 76 | 1017.0 |
| 20260506133256 | 53 | 162 | 0.0 | 0.9 | 0.00 | 0.00 | 0.00 | 77 | 1017.0 |
| 20260506133252 | 53 | 162 | 0.0 | 0.9 | 0.00 | 0.00 | 0.00 | 76 | 1017.0 |
| 20260506132252 | 53 | 162 | 0.0 | 0.9 | 0.00 | 0.00 | 0.00 | 77 | 1016.9 |
| 20260506131758 | 52 | 162 | 0.9 | 3.5 | 0.00 | 0.00 | 0.00 | 78 | 1016.9 |
| 20260506131753 | 53 | 162 | 0.0 | 2.6 | 0.00 | 0.00 | 0.00 | 78 | 1017.0 |
| 20260506131401 | 52 | 157 | 0.9 | 3.5 | 0.00 | 0.00 | 0.00 | 78 | 1016.8 |
| 20260506130252 | 53 | 162 | 0.9 | 2.6 | 0.00 | 0.00 | 0.00 | 78 | 1016.8 |
| 20260506125751 | 53 | 158 | 0.9 | 2.6 | 0.00 | 0.00 | 0.00 | 78 | 1016.7 |
| 20260506125251 | 53 | 144 | 0.9 | 2.6 | 0.00 | 0.00 | 0.00 | 77 | 1016.7 |
| 20260506124751 | 52 | 140 | 0.0 | 1.7 | 0.00 | 0.00 | 0.00 | 78 | 1016.7 |
| 20260506124251 | 52 | 142 | 0.0 | 1.7 | 0.00 | 0.00 | 0.00 | 78 | 1016.7 |
| 20260506123751 | 53 | 142 | 0.0 | 1.7 | 0.00 | 0.00 | 0.00 | 78 | 1016.6 |
| 20260506123251 | 53 | 142 | 0.9 | 3.5 | 0.00 | 0.00 | 0.00 | 78 | 1016.6 |
| 20260506122752 | 53 | 141 | 1.7 | 3.5 | 0.00 | 0.00 | 0.00 | 77 | 1016.5 |
| 20260506122256 | 53 | 134 | 1.7 | 3.5 | 0.00 | 0.00 | 0.00 | 77 | 1016.4 |
| 20260506122252 | 53 | 135 | 2.6 | 3.5 | 0.00 | 0.00 | 0.00 | 77 | 1016.4 |
| 20260506121858 | 53 | 130 | 0.9 | 1.7 | 0.00 | 0.00 | 0.00 | 77 | 1016.4 |
| 20260506121326 | 53 | 130 | 0.9 | 1.7 | 0.00 | 0.00 | 0.00 | 77 | 1016.4 |
| 20260506121252 | 53 | 134 | 0.9 | 3.5 | 0.00 | 0.00 | 0.00 | 77 | 1016.4 |
| 20260506120251 | 53 | 138 | 0.0 | 4.3 | 0.00 | 0.00 | 0.00 | 77 | 1016.5 |
| 20260506115751 | 53 | 146 | 0.9 | 4.3 | 0.00 | 0.00 | 0.00 | 77 | 1016.4 |
| 20260506115255 | 53 | 155 | 2.6 | 4.3 | 0.00 | 0.00 | 0.00 | 77 | 1016.3 |
| 20260506115251 | 53 | 156 | 1.7 | 4.3 | 0.00 | 0.00 | 0.00 | 77 | 1016.4 |
| 20260506114859 | 53 | 153 | 2.6 | 4.3 | 0.00 | 0.00 | 0.00 | 77 | 1016.3 |
| 20260506113751 | 53 | 147 | 3.5 | 4.3 | 0.00 | 0.00 | 0.00 | 77 | 1016.3 |
| 20260506113251 | 53 | 136 | 2.6 | 3.5 | 0.00 | 0.00 | 0.00 | 77 | 1016.3 |
| 20260506112751 | 53 | 134 | 2.6 | 3.5 | 0.00 | 0.00 | 0.00 | 77 | 1016.3 |
| 20260506112251 | 53 | 136 | 2.6 | 3.5 | 0.00 | 0.00 | 0.00 | 77 | 1016.3 |
| 20260506111755 | 53 | 142 | 1.7 | 2.6 | 0.00 | 0.00 | 0.00 | 77 | 1016.2 |
| 20260506111751 | 53 | 146 | 1.7 | 3.5 | 0.00 | 0.00 | 0.00 | 77 | 1016.2 |
| 20260506110751 | 53 | 137 | 1.7 | 2.6 | 0.00 | 0.00 | 0.00 | 78 | 1016.2 |
| 20260506110248 | 53 | 137 | 2.6 | 4.3 | 0.00 | 0.00 | 0.00 | 77 | 1016.2 |
| 20260506105748 | 53 | 137 | 3.5 | 4.3 | 0.00 | 0.00 | 0.00 | 77 | 1016.3 |
| 20260506105248 | 53 | 138 | 3.5 | 4.3 | 0.00 | 0.00 | 0.00 | 76 | 1016.3 |
| 20260506104747 | 53 | 141 | 2.6 | 4.3 | 0.00 | 0.00 | 0.00 | 77 | 1016.3 |
| 20260506104247 | 53 | 131 | 1.7 | 3.5 | 0.00 | 0.00 | 0.00 | 78 | 1016.3 |
| 20260506103745 | 53 | 129 | 0.9 | 2.6 | 0.00 | 0.00 | 0.00 | 80 | 1016.3 |
| 20260506103244 | 52 | 85 | 0.0 | 0.9 | 0.00 | 0.00 | 0.00 | 80 | 1016.3 |
| 20260506102744 | 52 | 85 | 0.0 | 1.7 | 0.00 | 0.00 | 0.00 | 80 | 1016.3 |
| 20260506102244 | 52 | 85 | 0.0 | 1.7 | 0.00 | 0.00 | 0.00 | 81 | 1016.3 |
| 20260506101744 | 52 | 85 | 0.0 | 1.7 | 0.00 | 0.00 | 0.00 | 82 | 1016.3 |
| 20260506101244 | 52 | 85 | 0.0 | 1.7 | 0.00 | 0.00 | 0.00 | 82 | 1016.3 |
| 20260506100744 | 52 | 85 | 0.9 | 2.6 | 0.00 | 0.00 | 0.00 | 83 | 1016.3 |
| 20260506100244 | 52 | 85 | 0.9 | 2.6 | 0.00 | 0.00 | 0.00 | 83 | 1016.3 |
| 20260506095744 | 52 | 85 | 0.9 | 2.6 | 0.00 | 0.00 | 0.00 | 83 | 1016.3 |
| 20260506095247 | 52 | 109 | 0.9 | 1.7 | 0.00 | 0.00 | 0.00 | 83 | 1016.4 |
| 20260506095242 | 52 | 143 | 0.9 | 1.7 | 0.00 | 0.00 | 0.00 | 82 | 1016.4 |
| 20260506094242 | 52 | 109 | 0.0 | 1.7 | 0.00 | 0.00 | 0.00 | 82 | 1016.4 |
| 20260506093746 | 52 | 109 | 0.0 | 1.7 | 0.00 | 0.00 | 0.00 | 82 | 1016.5 |
| 20260506093742 | 52 | 109 | 0.0 | 1.7 | 0.00 | 0.00 | 0.00 | 82 | 1016.5 |
| 20260506092742 | 52 | 109 | 0.9 | 2.6 | 0.00 | 0.00 | 0.00 | 81 | 1016.4 |
| 20260506092242 | 53 | 109 | 1.7 | 3.5 | 0.00 | 0.00 | 0.00 | 82 | 1016.4 |
| 20260506091742 | 53 | 109 | 0.9 | 3.5 | 0.00 | 0.00 | 0.00 | 81 | 1016.4 |
| 20260506091242 | 53 | 109 | 0.9 | 2.6 | 0.00 | 0.00 | 0.00 | 81 | 1016.4 |
| 20260506090742 | 53 | 109 | 0.9 | 2.6 | 0.00 | 0.00 | 0.00 | 81 | 1016.5 |
| 20260506090240 | 53 | 109 | 0.9 | 2.6 | 0.00 | 0.00 | 0.00 | 80 | 1016.5 |
| 20260506085740 | 53 | 109 | 0.9 | 2.6 | 0.00 | 0.00 | 0.00 | 80 | 1016.6 |
| 20260506085240 | 53 | 109 | 0.9 | 2.6 | 0.00 | 0.00 | 0.00 | 80 | 1016.6 |
| 20260506084740 | 53 | 109 | 0.0 | 1.7 | 0.00 | 0.00 | 0.00 | 80 | 1016.7 |
| 20260506084240 | 53 | 109 | 0.9 | 3.5 | 0.00 | 0.00 | 0.00 | 80 | 1016.7 |
| 20260506083740 | 53 | 109 | 1.7 | 3.5 | 0.00 | 0.00 | 0.00 | 80 | 1016.8 |
| 20260506083244 | 52 | 111 | 1.7 | 3.5 | 0.00 | 0.00 | 0.00 | 81 | 1016.8 |
| 20260506083240 | 53 | 109 | 1.7 | 3.5 | 0.00 | 0.00 | 0.00 | 80 | 1016.7 |
| 20260506082847 | 52 | 111 | 0.9 | 3.5 | 0.00 | 0.00 | 0.00 | 81 | 1016.8 |
| 20260506081741 | 52 | 127 | 0.9 | 3.5 | 0.00 | 0.00 | 0.00 | 81 | 1016.8 |
| 20260506081238 | 52 | 146 | 0.0 | 0.0 | 0.00 | 0.00 | 0.00 | 82 | 1016.8 |
| 20260506080742 | 52 | 146 | 0.0 | 0.0 | 0.00 | 0.00 | 0.00 | 82 | 1016.8 |
| 20260506080738 | 52 | 146 | 0.0 | 0.0 | 0.00 | 0.00 | 0.00 | 82 | 1016.8 |
| 20260506080345 | 52 | 146 | 0.0 | 0.0 | 0.00 | 0.00 | 0.00 | 82 | 1016.9 |
| 20260506073236 | 52 | 146 | 0.0 | 0.0 | 0.00 | 0.00 | 0.00 | 83 | 1016.9 |
| 20260506072734 | 53 | 146 | 0.0 | 1.7 | 0.00 | 0.00 | 0.00 | 84 | 1016.8 |
| 20260506072233 | 53 | 146 | 0.0 | 1.7 | 0.00 | 0.00 | 0.00 | 83 | 1016.9 |
| 20260506071734 | 53 | 146 | 0.0 | 2.6 | 0.00 | 0.00 | 0.00 | 83 | 1016.8 |
| 20260506071234 | 53 | 148 | 1.7 | 3.5 | 0.00 | 0.00 | 0.00 | 82 | 1016.7 |
| 20260506070733 | 53 | 200 | 2.6 | 3.5 | 0.00 | 0.00 | 0.00 | 81 | 1016.7 |
| 20260506070238 | 53 | 192 | 2.6 | 4.3 | 0.00 | 0.00 | 0.00 | 81 | 1016.5 |
| 20260506070234 | 53 | 206 | 2.6 | 3.5 | 0.00 | 0.00 | 0.00 | 81 | 1016.5 |
| 20260506062231 | 53 | 237 | 4.3 | 8.7 | 0.00 | 0.00 | 0.00 | 80 | 1016.2 |
| 20260506061730 | 53 | 225 | 5.2 | 8.7 | 0.00 | 0.00 | 0.00 | 79 | 1016.3 |
| 20260506061230 | 53 | 229 | 4.3 | 8.7 | 0.00 | 0.00 | 0.00 | 80 | 1016.2 |
| 20260506060729 | 53 | 252 | 3.5 | 8.7 | 0.00 | 0.00 | 0.00 | 80 | 1016.2 |
| 20260506060229 | 53 | 239 | 3.5 | 7.0 | 0.00 | 0.00 | 0.00 | 80 | 1016.0 |
| 20260506050731 | 54 | 214 | 4.3 | 7.0 | 0.00 | 0.00 | 0.00 | 78 | 1015.8 |
| 20260506050726 | 54 | 201 | 4.3 | 7.0 | 0.00 | 0.00 | 0.00 | 77 | 1015.8 |
| 20260506044723 | 54 | 192 | 5.2 | 7.0 | 0.00 | 0.00 | 0.00 | 77 | 1015.6 |
| 20260506044223 | 54 | 192 | 5.2 | 7.0 | 0.00 | 0.00 | 0.00 | 78 | 1015.4 |
| 20260506043728 | 54 | 192 | 5.2 | 6.1 | 0.00 | 0.00 | 0.00 | 80 | 1015.4 |
| 20260506043724 | 54 | 193 | 5.2 | 6.1 | 0.00 | 0.00 | 0.00 | 78 | 1015.4 |
| 20260506042727 | 54 | 184 | 6.1 | 7.0 | 0.00 | 0.00 | 0.00 | 80 | 1015.3 |
| 20260506042723 | 54 | 192 | 5.2 | 7.0 | 0.00 | 0.00 | 0.00 | 80 | 1015.4 |
| 20260506041723 | 54 | 189 | 6.1 | 7.0 | 0.00 | 0.00 | 0.00 | 80 | 1015.2 |
| 20260506041223 | 54 | 198 | 5.2 | 6.1 | 0.00 | 0.00 | 0.00 | 80 | 1015.2 |
| 20260506040727 | 54 | 202 | 3.5 | 5.2 | 0.00 | 0.00 | 0.00 | 79 | 1015.2 |
| 20260506040723 | 54 | 198 | 4.3 | 6.1 | 0.00 | 0.00 | 0.00 | 80 | 1015.2 |
| 20260506035720 | 54 | 217 | 2.6 | 4.3 | 0.00 | 0.00 | 0.00 | 80 | 1015.2 |
| 20260506035221 | 54 | 236 | 2.6 | 3.5 | 0.00 | 0.00 | 0.00 | 81 | 1015.1 |
| 20260506034721 | 54 | 239 | 1.7 | 2.6 | 0.00 | 0.00 | 0.00 | 81 | 1015.1 |
| 20260506034221 | 54 | 239 | 1.7 | 2.6 | 0.00 | 0.00 | 0.00 | 80 | 1015.0 |
| 20260506033721 | 54 | 239 | 1.7 | 3.5 | 0.00 | 0.00 | 0.00 | 79 | 1014.9 |
| 20260506033221 | 54 | 242 | 2.6 | 4.3 | 0.00 | 0.00 | 0.00 | 79 | 1014.8 |
| 20260506032721 | 54 | 242 | 3.5 | 4.3 | 0.00 | 0.00 | 0.00 | 78 | 1014.8 |
| 20260506032220 | 54 | 239 | 3.5 | 5.2 | 0.00 | 0.00 | 0.00 | 78 | 1014.6 |
| 20260506031720 | 54 | 251 | 3.5 | 5.2 | 0.00 | 0.00 | 0.00 | 78 | 1014.5 |
| 20260506031221 | 55 | 200 | 1.7 | 5.2 | 0.00 | 0.00 | 0.00 | 77 | 1014.4 |
| 20260506030721 | 55 | 134 | 1.7 | 8.7 | 0.00 | 0.00 | 0.00 | 77 | 1014.4 |
| 20260506030221 | 55 | 249 | 3.5 | 8.7 | 0.00 | 0.00 | 0.00 | 76 | 1014.3 |
| 20260506025721 | 55 | 271 | 5.2 | 8.7 | 0.00 | 0.00 | 0.00 | 76 | 1014.3 |
| 20260506025220 | 55 | 267 | 6.1 | 8.7 | 0.00 | 0.00 | 0.00 | 77 | 1014.2 |
| 20260506024720 | 54 | 280 | 5.2 | 8.7 | 0.00 | 0.00 | 0.00 | 77 | 1014.1 |
| 20260506024225 | 54 | 286 | 6.1 | 8.7 | 0.00 | 0.00 | 0.00 | 78 | 1014.0 |
| 20260506024220 | 54 | 281 | 6.1 | 8.7 | 0.00 | 0.00 | 0.00 | 78 | 1014.0 |
| 20260506023221 | 54 | 291 | 5.2 | 8.7 | 0.00 | 0.00 | 0.00 | 80 | 1013.9 |
| 20260506022719 | 54 | 297 | 4.3 | 8.7 | 0.00 | 0.00 | 0.00 | 81 | 1013.8 |
| 20260506022219 | 54 | 296 | 4.3 | 8.7 | 0.00 | 0.00 | 0.00 | 80 | 1013.8 |
| 20260506021719 | 55 | 295 | 4.3 | 8.7 | 0.00 | 0.00 | 0.00 | 80 | 1013.8 |
| 20260506021219 | 55 | 289 | 3.5 | 7.8 | 0.00 | 0.00 | 0.00 | 80 | 1013.8 |
| 20260506020719 | 55 | 297 | 3.5 | 7.8 | 0.00 | 0.00 | 0.00 | 80 | 1013.8 |
| 20260506020218 | 55 | 324 | 2.6 | 7.8 | 0.00 | 0.00 | 0.00 | 80 | 1013.7 |
| 20260506015718 | 55 | 250 | 3.5 | 7.8 | 0.00 | 0.00 | 0.00 | 81 | 1013.7 |
| 20260506015218 | 55 | 255 | 2.6 | 7.8 | 0.00 | 0.00 | 0.00 | 83 | 1013.6 |
| 20260506014718 | 54 | 195 | 1.7 | 5.2 | 0.00 | 0.00 | 0.00 | 85 | 1013.7 |
| 20260506014220 | 53 | 215 | 0.9 | 6.1 | 0.00 | 0.00 | 0.00 | 87 | 1013.6 |
| 20260506014216 | 53 | 259 | 0.9 | 5.2 | 0.00 | 0.00 | 0.00 | 86 | 1013.7 |
| 20260506013221 | 52 | 215 | 2.6 | 6.1 | 0.00 | 0.00 | 0.00 | 88 | 1013.7 |
| 20260506013217 | 52 | 198 | 0.9 | 6.1 | 0.00 | 0.00 | 0.00 | 88 | 1013.7 |
| 20260506012823 | 52 | 180 | 3.5 | 6.1 | 0.00 | 0.00 | 0.00 | 87 | 1013.6 |
| 20260506011717 | 53 | 165 | 4.3 | 7.0 | 0.00 | 0.00 | 0.00 | 87 | 1013.7 |
| 20260506011221 | 54 | 203 | 3.5 | 6.1 | 0.00 | 0.00 | 0.00 | 84 | 1013.6 |
| 20260506011217 | 53 | 179 | 4.3 | 7.0 | 0.00 | 0.00 | 0.00 | 86 | 1013.6 |
| 20260506010217 | 54 | 194 | 3.5 | 6.1 | 0.00 | 0.00 | 0.00 | 83 | 1013.6 |
| 20260506005721 | 54 | 184 | 3.5 | 7.0 | 0.00 | 0.00 | 0.00 | 84 | 1013.6 |
| 20260506005717 | 54 | 173 | 3.5 | 6.1 | 0.00 | 0.00 | 0.00 | 84 | 1013.6 |
| 20260506004716 | 53 | 201 | 4.3 | 7.0 | 0.00 | 0.00 | 0.00 | 85 | 1013.5 |
| 20260506004221 | 52 | 198 | 2.6 | 4.3 | 0.00 | 0.00 | 0.00 | 89 | 1013.4 |
| 20260506004217 | 53 | 193 | 3.5 | 6.1 | 0.00 | 0.00 | 0.00 | 88 | 1013.5 |
| 20260506003217 | 52 | 211 | 2.6 | 4.3 | 0.00 | 0.00 | 0.00 | 89 | 1013.4 |
| 20260506002720 | 52 | 222 | 3.5 | 5.2 | 0.00 | 0.00 | 0.00 | 91 | 1013.5 |
| 20260506002716 | 52 | 216 | 2.6 | 4.3 | 0.00 | 0.00 | 0.00 | 91 | 1013.4 |
| 20260506001717 | 52 | 220 | 3.5 | 5.2 | 0.00 | 0.00 | 0.00 | 91 | 1013.5 |
| 20260506001216 | 52 | 218 | 3.5 | 5.2 | 0.00 | 0.00 | 0.00 | 91 | 1013.4 |
| 20260506000716 | 52 | 217 | 3.5 | 7.0 | 0.00 | 0.00 | 0.00 | 91 | 1013.4 |
| 20260506000214 | 52 | 205 | 3.5 | 7.0 | 0.00 | 0.00 | 0.00 | 91 | 1013.4 |
| 20260505235714 | 52 | 192 | 4.3 | 7.0 | 0.00 | 0.00 | 0.00 | 91 | 1013.2 |
| 20260505235213 | 51 | 190 | 4.3 | 7.0 | 0.00 | 0.00 | 0.00 | 91 | 1013.4 |
| 20260505234714 | 51 | 196 | 4.3 | 7.0 | 0.00 | 0.00 | 0.00 | 90 | 1013.2 |
| 20260505234214 | 51 | 191 | 5.2 | 9.6 | 0.00 | 0.00 | 0.00 | 90 | 1013.4 |
| 20260505233718 | 53 | 201 | 7.0 | 13.9 | 0.00 | 0.00 | 0.00 | 88 | 1013.4 |
| 20260505233714 | 52 | 182 | 6.1 | 10.4 | 0.00 | 0.00 | 0.00 | 89 | 1013.2 |
| 20260505232716 | 54 | 197 | 7.8 | 13.9 | 0.00 | 0.00 | 0.00 | 87 | 1013.2 |
| 20260505232712 | 54 | 186 | 7.8 | 13.0 | 0.00 | 0.00 | 0.00 | 87 | 1013.2 |
| 20260505232319 | 54 | 184 | 7.8 | 13.9 | 0.00 | 0.00 | 0.00 | 87 | 1013.2 |
| 20260505231212 | 54 | 178 | 7.8 | 13.9 | 0.00 | 0.00 | 0.00 | 87 | 1013.2 |
| 20260505230712 | 54 | 188 | 7.8 | 12.2 | 0.00 | 0.00 | 0.00 | 86 | 1013.2 |
| 20260505230212 | 54 | 169 | 7.8 | 12.2 | 0.00 | 0.00 | 0.00 | 86 | 1013.2 |
| 20260505225712 | 54 | 213 | 7.8 | 13.0 | 0.00 | 0.00 | 0.00 | 86 | 1013.4 |
| 20260505225213 | 53 | 191 | 8.7 | 13.9 | 0.00 | 0.00 | 0.00 | 87 | 1013.4 |
| 20260505224712 | 53 | 167 | 8.7 | 15.6 | 0.00 | 0.00 | 0.00 | 86 | 1013.4 |
| 20260505224213 | 54 | 157 | 8.7 | 15.6 | 0.00 | 0.00 | 0.00 | 84 | 1013.2 |
| 20260505223716 | 56 | 186 | 9.6 | 15.6 | 0.00 | 0.00 | 0.00 | 83 | 1013.2 |
| 20260505223712 | 56 | 171 | 8.7 | 15.6 | 0.00 | 0.00 | 0.00 | 83 | 1013.4 |
| 20260505222711 | 56 | 180 | 8.7 | 15.6 | 0.00 | 0.00 | 0.00 | 82 | 1013.4 |
| 20260505222211 | 56 | 169 | 8.7 | 15.6 | 0.00 | 0.00 | 0.00 | 82 | 1013.4 |
| 20260505221711 | 55 | 177 | 7.8 | 15.6 | 0.00 | 0.00 | 0.00 | 82 | 1013.6 |
| 20260505221211 | 54 | 199 | 7.0 | 12.2 | 0.00 | 0.00 | 0.00 | 85 | 1013.5 |
| 20260505220711 | 54 | 155 | 6.1 | 12.2 | 0.00 | 0.00 | 0.00 | 86 | 1013.6 |
| 20260505220211 | 53 | 184 | 6.1 | 10.4 | 0.00 | 0.00 | 0.00 | 85 | 1013.7 |
| 20260505215711 | 52 | 211 | 7.0 | 12.2 | 0.00 | 0.00 | 0.00 | 84 | 1013.7 |
| 20260505215211 | 51 | 205 | 7.8 | 12.2 | 0.00 | 0.00 | 0.00 | 84 | 1013.7 |
| 20260505214712 | 51 | 220 | 8.7 | 12.2 | 0.00 | 0.00 | 0.00 | 85 | 1013.8 |
| 20260505214211 | 50 | 202 | 8.7 | 11.3 | 0.00 | 0.00 | 0.00 | 87 | 1013.7 |
| 20260505213711 | 50 | 209 | 8.7 | 10.4 | 0.00 | 0.00 | 0.00 | 88 | 1013.8 |
| 20260505213208 | 50 | 201 | 7.8 | 10.4 | 0.00 | 0.00 | 0.00 | 88 | 1013.8 |
| 20260505212708 | 50 | 209 | 7.8 | 10.4 | 0.00 | 0.00 | 0.00 | 89 | 1013.9 |
| 20260505212214 | 51 | 196 | 8.7 | 10.4 | 0.00 | 0.00 | 0.00 | 85 | 1013.9 |
| 20260505212208 | 51 | 200 | 7.8 | 10.4 | 0.00 | 0.00 | 0.00 | 87 | 1013.9 |
| 20260505211815 | 51 | 199 | 7.8 | 10.4 | 0.00 | 0.00 | 0.00 | 83 | 1014.0 |
| 20260505211315 | 52 | 205 | 7.8 | 10.4 | 0.00 | 0.00 | 0.00 | 82 | 1014.0 |
| 20260505210208 | 52 | 190 | 7.8 | 11.3 | 0.00 | 0.00 | 0.00 | 80 | 1013.9 |
| 20260505205708 | 52 | 194 | 8.7 | 13.9 | 0.00 | 0.00 | 0.00 | 81 | 1013.9 |
| 20260505205208 | 53 | 175 | 9.6 | 14.8 | 0.00 | 0.00 | 0.00 | 81 | 1013.9 |
| 20260505204708 | 53 | 190 | 9.6 | 14.8 | 0.00 | 0.00 | 0.00 | 80 | 1014.0 |
| 20260505204208 | 53 | 184 | 9.6 | 14.8 | 0.00 | 0.00 | 0.00 | 79 | 1013.9 |
| 20260505203708 | 54 | 178 | 10.4 | 14.8 | 0.00 | 0.00 | 0.00 | 77 | 1013.8 |
| 20260505203208 | 55 | 188 | 9.6 | 17.4 | 0.00 | 0.00 | 0.00 | 74 | 1013.8 |
| 20260505202708 | 56 | 174 | 8.7 | 17.4 | 0.00 | 0.00 | 0.00 | 77 | 1013.7 |
| 20260505202214 | 55 | 188 | 9.6 | 13.9 | 0.00 | 0.00 | 0.00 | 82 | 1013.7 |
| 20260505202208 | 55 | 185 | 9.6 | 13.9 | 0.00 | 0.00 | 0.00 | 80 | 1013.7 |
| 20260505201208 | 54 | 192 | 8.7 | 13.0 | 0.00 | 0.00 | 0.00 | 82 | 1013.8 |
| 20260505200707 | 54 | 192 | 8.7 | 14.8 | 0.00 | 0.00 | 0.00 | 81 | 1013.8 |
| 20260505200205 | 54 | 205 | 8.7 | 14.8 | 0.00 | 0.00 | 0.00 | 82 | 1013.8 |
| 20260505195706 | 54 | 182 | 9.6 | 15.6 | 0.00 | 0.00 | 0.00 | 83 | 1013.8 |
| 20260505195211 | 53 | 196 | 8.7 | 13.9 | 0.00 | 0.00 | 0.00 | 83 | 1013.8 |
| 20260505195205 | 53 | 175 | 9.6 | 15.6 | 0.00 | 0.00 | 0.00 | 83 | 1013.7 |
| 20260505194206 | 53 | 190 | 7.8 | 11.3 | 0.00 | 0.00 | 0.00 | 80 | 1013.9 |
| 20260505193712 | 54 | 183 | 8.7 | 13.9 | 0.00 | 0.00 | 0.00 | 77 | 1014.0 |
| 20260505193706 | 54 | 175 | 7.8 | 12.2 | 0.00 | 0.00 | 0.00 | 79 | 1014.0 |
| 20260505192706 | 55 | 209 | 7.8 | 13.9 | 0.00 | 0.00 | 0.00 | 77 | 1014.0 |
| 20260505192207 | 56 | 196 | 7.0 | 14.8 | 0.00 | 0.00 | 0.00 | 77 | 1014.0 |
| 20260505192203 | 56 | 209 | 7.0 | 14.8 | 0.00 | 0.00 | 0.00 | 76 | 1014.0 |
| 20260505191204 | 55 | 167 | 7.0 | 13.0 | 0.00 | 0.00 | 0.00 | 78 | 1014.0 |
| 20260505190704 | 54 | 182 | 7.0 | 13.0 | 0.00 | 0.00 | 0.00 | 79 | 1013.9 |
| 20260505190204 | 53 | 208 | 7.8 | 11.3 | 0.00 | 0.00 | 0.00 | 82 | 1014.0 |
| 20260505185707 | 53 | 178 | 6.1 | 9.6 | 0.00 | 0.00 | 0.00 | 78 | 1014.1 |
| 20260505185703 | 53 | 168 | 7.0 | 11.3 | 0.00 | 0.00 | 0.00 | 82 | 1014.0 |
| 20260505184703 | 54 | 173 | 6.1 | 11.3 | 0.00 | 0.00 | 0.00 | 81 | 1014.0 |
| 20260505184204 | 54 | 142 | 6.1 | 11.3 | 0.00 | 0.00 | 0.00 | 80 | 1013.9 |
| 20260505183703 | 54 | 147 | 5.2 | 9.6 | 0.00 | 0.00 | 0.00 | 80 | 1014.0 |
| 20260505183208 | 54 | 205 | 4.3 | 10.4 | 0.00 | 0.00 | 0.00 | 83 | 1013.9 |
| 20260505183204 | 55 | 171 | 5.2 | 10.4 | 0.00 | 0.00 | 0.00 | 81 | 1013.9 |
| 20260505182207 | 53 | 188 | 4.3 | 7.8 | 0.00 | 0.00 | 0.00 | 82 | 1013.9 |
| 20260505182203 | 53 | 202 | 4.3 | 7.8 | 0.00 | 0.00 | 0.00 | 83 | 1013.9 |
| 20260505181811 | 53 | 161 | 5.2 | 7.8 | 0.00 | 0.00 | 0.00 | 82 | 1014.0 |
| 20260505180708 | 54 | 192 | 5.2 | 8.7 | 0.00 | 0.00 | 0.00 | 81 | 1013.9 |
| 20260505180704 | 53 | 196 | 5.2 | 7.8 | 0.00 | 0.00 | 0.00 | 81 | 1013.9 |
| 20260505175708 | 55 | 178 | 4.3 | 7.8 | 0.00 | 0.00 | 0.00 | 83 | 1013.9 |
| 20260505175704 | 55 | 180 | 5.2 | 8.7 | 0.00 | 0.00 | 0.00 | 81 | 1013.8 |
| 20260505174703 | 55 | 186 | 4.3 | 8.7 | 0.00 | 0.00 | 0.00 | 85 | 1013.7 |
| 20260505174203 | 54 | 196 | 4.3 | 8.7 | 0.00 | 0.00 | 0.00 | 85 | 1013.6 |
| 20260505173704 | 54 | 180 | 4.3 | 7.8 | 0.00 | 0.00 | 0.00 | 86 | 1013.6 |
| 20260505173203 | 53 | 183 | 4.3 | 7.8 | 0.00 | 0.00 | 0.00 | 87 | 1013.7 |
| 20260505172703 | 53 | 198 | 4.3 | 7.8 | 0.00 | 0.00 | 0.00 | 87 | 1013.5 |
| 20260505172204 | 53 | 215 | 3.5 | 6.1 | 0.00 | 0.00 | 0.00 | 87 | 1013.5 |
| 20260505172200 | 53 | 207 | 4.3 | 7.0 | 0.00 | 0.00 | 0.00 | 87 | 1013.5 |
| 20260505171808 | 53 | 169 | 2.6 | 5.2 | 0.00 | 0.00 | 0.00 | 85 | 1013.6 |